Regional Weather Roundup
Issued by NWS

Home | Current Version | Previous Version | Text Only | Print | Product List | Glossary Off
Versions: 1 2 3 4 5 6 7 8 9 10 11 12 13 14 15 16 17 18 19 20 21 22 23 24 25 26 27 28 29 30 31 32 33 34 35 36 37 38 39 40 41 42 43 44 45 46 47 48 49 50

000
ASUS44 KMEG 032010
RWRTN
TENNESSEE HOURLY STATE WEATHER ROUNDUP
NATIONAL WEATHER SERVICE MEMPHIS TN
300 PM CDT TUE MAY 03 2016

TNZ002-004-019-021-049-052-054-088>092-032100-
WEST TENNESSEE

CITY           SKY/WX    TMP DP  RH WIND       PRES   REMARKS
MEMPHIS INTL   PTSUNNY   65  49  56 NW10      30.00F
NWS MEMPHIS      N/A     61 N/A N/A MISG        N/A
JACKSON        CLOUDY    63  49  60 W10       29.98F
DYERSBURG      CLOUDY    63  46  55 NW7       29.98
UNION CITY     CLOUDY    63  48  59 N8        29.98S
LEXINGTON      CLOUDY    63  48  59 NW8       29.96F
$$

TNZ008-025-027-028-033-062-065-066-032100-
NORTH MIDDLE TENNESSEE

CITY           SKY/WX    TMP DP  RH WIND       PRES   REMARKS
NASHVILLE      PTSUNNY   66  47  50 N12G17    29.94F
CLARKSVILLE    CLOUDY    63  46  54 W9        29.96S
SMYRNA         PTSUNNY   65  49  56 N8        29.94F
COOKEVILLE     PTSUNNY   64  52  63 NW8       29.91F
CROSSVILLE     PTSUNNY   63  48  58 NW12      29.92F
$$

TNZ061-075-076-078-094-096-097-032100-
SOUTH MIDDLE TENNESSEE

CITY           SKY/WX    TMP DP  RH WIND       PRES   REMARKS
FAYETTEVILLE   MOSUNNY   68  52  56 VRB6G13   29.91F
TULLAHOMA      PTSUNNY   66  50  55 NW10      29.92F
WINCHESTER     PTSUNNY   66  50  55 N7        29.91F
MCMINNVILLE    PTSUNNY   64  52  63 NW12      29.92F
COLUMBIA       PTSUNNY   66  52  59 VRB7      29.92F
SHELBYVILLE    PTSUNNY   70  52  52 NW10      29.93F
$$

TNZ017-018-042-046-047-032100-
NORTHEAST TENNESSEE

CITY           SKY/WX    TMP DP  RH WIND       PRES   REMARKS
TRI CITIES     PTSUNNY   70  54  56 NW14G20   29.84F
$$

TNZ012-013-036-069-073-074-032100-
CENTRAL EAST TENNESSEE

CITY           SKY/WX    TMP DP  RH WIND       PRES   REMARKS
KNOXVILLE      PTSUNNY   71  52  50 W15       29.85F
OAK RIDGE      CLOUDY    71  47  42 W7        29.87F
GATLINBURG     PTCLDY    70  54  56 W6        29.84F
MORRISTOWN     CLOUDY    66  52  59 NW12      29.85F
$$

TNZ083-085-099-032100-
SOUTHEAST TENNESSEE

CITY           SKY/WX    TMP DP  RH WIND       PRES   REMARKS
CHATTANOOGA    MOSUNNY   72  50  45 W10       29.87F
$$

SKY/WX REPORTED AS FAIR MEANS FEW OR NO CLOUDS BELOW
12 THOUSAND FEET.





USA.gov is the U.S. government's official web portal to all federal, state and local government web resources and services.